Location: downtown San Diego
(32.7310°N, 117.1990°W)
Time: 02:43:15
(UTC-07:00)

IGS 5A - Pass Details

Date: 12 July 2018
Orbit: 584 x 589 km, 97.7° (Epoch: 16 July)

Event Time Altitude Azimuth Distance (km) Brightness Sun altitude
Exits shadow 22:48:02 46° 353° (N) 797 4.4 -27.6°
Drops below altitude 10° 22:51:00 10° 350° (N) 1,917 6.9 -28.0°
Sets 22:53:10 0° 349° (N) 2,822 8.0 -28.2°
